TimeMST,TemperatureF,Dew PointF,Humidity,Sea Level PressureIn,VisibilityMPH,Wind Direction,Wind SpeedMPH,Gust SpeedMPH,PrecipitationIn,Events,Conditions,WindDirDegrees,DateUTC
12:53 AM,-6.0,-9.9,83,30.21,10.0,Calm,Calm,-,N/A,,Clear,0,2012-12-26 07:53:00
1:53 AM,-5.1,-9.9,80,30.20,10.0,Calm,Calm,-,N/A,,Clear,0,2012-12-26 08:53:00
2:53 AM,-2.9,-7.1,82,30.18,10.0,Calm,Calm,-,N/A,,Clear,0,2012-12-26 09:53:00
3:53 AM,-0.9,-6.0,79,30.13,10.0,Calm,Calm,-,N/A,,Mostly Cloudy,0,2012-12-26 10:53:00
4:53 AM,1.0,-2.0,87,30.13,10.0,Calm,Calm,-,N/A,,Overcast,0,2012-12-26 11:53:00
5:53 AM,3.0,-0.9,84,30.10,10.0,Calm,Calm,-,N/A,,Overcast,0,2012-12-26 12:53:00
6:53 AM,3.9,-0.0,84,30.07,10.0,Calm,Calm,-,N/A,,Overcast,0,2012-12-26 13:53:00
7:53 AM,6.1,1.9,83,30.05,10.0,Calm,Calm,-,N/A,,Overcast,0,2012-12-26 14:53:00
8:53 AM,8.1,3.9,83,30.05,10.0,Calm,Calm,-,N/A,,Overcast,0,2012-12-26 15:53:00
9:53 AM,10.9,7.0,84,30.02,10.0,SSE,3.5,-,N/A,,Overcast,160,2012-12-26 16:53:00
10:53 AM,12.9,8.1,81,30.01,10.0,Calm,Calm,-,N/A,,Mostly Cloudy,0,2012-12-26 17:53:00
11:53 AM,16.0,9.0,74,29.96,10.0,Calm,Calm,-,N/A,,Overcast,0,2012-12-26 18:53:00
12:53 PM,19.9,10.9,68,29.92,10.0,Calm,Calm,-,N/A,,Overcast,0,2012-12-26 19:53:00
1:44 PM,19.4,12.2,74,29.67,1.5,SSE,9.2,-,0.00,Snow,Light Snow,150,2012-12-26 20:44:00
1:46 PM,19.4,14.0,80,29.67,1.0,SSE,10.4,-,0.00,Snow,Light Snow,150,2012-12-26 20:46:00
1:53 PM,19.9,15.1,81,29.90,0.5,SE,8.1,-,0.00,Snow,Snow,140,2012-12-26 20:53:00
2:03 PM,19.4,15.8,86,29.66,0.2,SSE,8.1,-,0.00,Fog-Snow,Heavy Snow,150,2012-12-26 21:03:00
2:10 PM,19.4,17.6,93,29.66,0.2,SSE,6.9,-,0.00,Fog-Snow,Snow,150,2012-12-26 21:10:00
2:35 PM,21.2,17.6,86,29.65,0.5,SE,6.9,-,0.00,Fog-Snow,Snow,140,2012-12-26 21:35:00
2:42 PM,21.2,17.6,86,29.65,1.0,SSE,4.6,-,0.00,Snow,Light Snow,150,2012-12-26 21:42:00
2:51 PM,21.2,17.6,86,29.65,1.8,SE,6.9,-,0.00,Snow,Light Snow,140,2012-12-26 21:51:00
2:53 PM,21.9,18.0,85,29.86,2.0,SE,8.1,-,0.00,Snow,Light Snow,130,2012-12-26 21:53:00
3:02 PM,21.2,17.6,86,29.64,4.0,ESE,8.1,-,0.00,Snow,Light Snow,120,2012-12-26 22:02:00
3:53 PM,19.9,16.0,85,29.85,5.0,South,5.8,-,0.00,Snow,Light Snow,170,2012-12-26 22:53:00
4:18 PM,19.4,15.8,86,29.64,8.0,SSE,10.4,-,0.00,,Overcast,150,2012-12-26 23:18:00
4:27 PM,19.4,15.8,86,29.63,7.0,SE,9.2,-,0.00,,Overcast,130,2012-12-26 23:27:00
5:21 PM,19.4,14.0,80,29.63,10.0,ESE,11.5,-,N/A,,Overcast,120,2012-12-27 00:21:00
5:53 PM,19.9,12.9,74,29.83,10.0,ESE,8.1,-,N/A,,Overcast,110,2012-12-27 00:53:00
6:53 PM,19.0,14.0,81,29.83,10.0,ESE,8.1,-,N/A,,Overcast,110,2012-12-27 01:53:00
7:53 PM,19.9,15.1,81,29.82,4.0,SE,8.1,-,0.00,Snow,Light Snow,130,2012-12-27 02:53:00
8:20 PM,19.4,15.8,86,29.62,2.5,ESE,10.4,-,0.00,Snow,Light Snow,120,2012-12-27 03:20:00
8:43 PM,17.6,12.2,79,29.61,4.0,SE,8.1,-,0.00,Snow,Light Snow,130,2012-12-27 03:43:00
8:53 PM,17.1,12.9,84,29.81,6.0,SE,6.9,-,0.00,Snow,Light Snow,130,2012-12-27 03:53:00
9:53 PM,14.0,10.0,84,29.81,7.0,SE,6.9,-,N/A,,Clear,130,2012-12-27 04:53:00
10:53 PM,8.1,3.9,83,29.84,6.0,SSE,3.5,-,N/A,,Clear,160,2012-12-27 05:53:00
11:53 PM,9.0,5.0,84,29.82,6.0,SE,5.8,-,N/A,,Scattered Clouds,140,2012-12-27 06:53:00